FW2996 Weather Reports


Display with metric or nautical units.
time (UTC)temp
F
wind
direction
speed
MPH
gust
MPH
rain 1hr
in
rain 24hr
in
rain mn
in
humidity
%
barometer
mb
20260503203327 77 203 2.0 7.0 0.00 0.00 0.00 37 1060.8
20260503202824 77 162 2.0 6.0 0.00 0.00 0.00 39 1060.9
20260503202322 79 234 8.0 13.0 0.00 0.00 0.00 34 1061.3
20260503201820 77 210 4.0 9.0 0.00 0.00 0.00 35 1061.4
20260503201316 77 123 9.0 11.0 0.00 0.00 0.00 36 1061.4
20260503200814 78 179 8.0 13.0 0.00 0.00 0.00 35 1061.2
20260503200310 77 187 4.0 8.0 0.00 0.00 0.00 35 1061.4
20260503195807 77 202 4.0 8.0 0.00 0.00 0.00 37 1061.4
20260503195304 77 151 6.0 8.0 0.00 0.00 0.00 36 1061.6
20260503194801 78 131 4.0 8.0 0.00 0.00 0.00 34 1061.8
20260503194256 78 186 8.0 11.0 0.00 0.00 0.00 33 1061.8
20260503193752 77 207 2.0 10.0 0.00 0.00 0.00 36 1061.7
20260503193248 76 169 7.0 15.0 0.00 0.00 0.00 37 1061.7
20260503192739 77 164 8.0 16.0 0.00 0.00 0.00 34 1061.9
20260503192234 76 175 9.0 15.0 0.00 0.00 0.00 35 1061.8
20260503191732 76 176 10.0 14.0 0.00 0.00 0.00 37 1062.0
20260503191229 77 156 8.0 13.0 0.00 0.00 0.00 35 1061.8
20260503190725 76 170 5.0 15.0 0.00 0.00 0.00 33 1062.1
20260503190222 77 152 8.0 9.0 0.00 0.00 0.00 34 1062.0
20260503185720 76 191 2.0 7.0 0.00 0.00 0.00 36 1062.4
20260503185215 76 131 8.0 13.0 0.00 0.00 0.00 33 1062.5
20260503184709 77 167 3.0 7.0 0.00 0.00 0.00 36 1062.4
20260503184206 76 241 3.0 11.0 0.00 0.00 0.00 35 1062.4
20260503183703 79 132 8.0 9.0 0.00 0.00 0.00 35 1062.5
20260503183200 78 171 4.0 6.0 0.00 0.00 0.00 34 1062.6
20260503182658 76 191 4.0 9.0 0.00 0.00 0.00 35 1062.8
20260503182156 77 185 2.0 6.0 0.00 0.00 0.00 33 1062.8
20260503181652 77 209 3.0 9.0 0.00 0.00 0.00 33 1063.0
20260503181149 77 150 7.0 9.0 0.00 0.00 0.00 34 1062.8
20260503180646 76 139 6.0 10.0 0.00 0.00 0.00 37 1063.0
20260503180144 76 137 5.0 8.0 0.00 0.00 0.00 37 1063.2
20260503175641 76 182 8.0 11.0 0.00 0.00 0.00 36 1063.2
20260503175138 76 127 6.0 9.0 0.00 0.00 0.00 35 1063.6
20260503174635 76 191 6.0 13.0 0.00 0.00 0.00 34 1063.6
20260503174132 76 198 7.0 9.0 0.00 0.00 0.00 35 1063.4
20260503173627 75 225 2.0 10.0 0.00 0.00 0.00 38 1063.7
20260503173124 75 151 6.0 13.0 0.00 0.00 0.00 39 1063.7
20260503172620 76 178 9.0 11.0 0.00 0.00 0.00 38 1064.0
20260503172118 75 191 3.0 7.0 0.00 0.00 0.00 42 1063.8
20260503171614 74 132 2.0 8.0 0.00 0.00 0.00 41 1063.9
20260503171112 76 186 4.0 10.0 0.00 0.00 0.00 40 1063.9
20260503170609 75 191 2.0 9.0 0.00 0.00 0.00 44 1064.0
20260503170105 74 127 3.0 7.0 0.00 0.00 0.00 43 1064.1
20260503151000 71 212 3.0 7.0 0.00 0.00 0.00 53 1064.7
20260503150457 71 227 5.0 9.0 0.00 0.00 0.00 51 1064.8
20260503131344 63 242 2.0 3.0 0.00 0.00 0.00 67 1064.2
20260503130841 63 271 1.0 2.0 0.00 0.00 0.00 68 1064.0
20260503130339 62 267 2.0 2.0 0.00 0.00 0.00 70 1064.0
20260503110727 55 10 1.0 1.0 0.00 0.00 0.00 78 1063.5
20260503110224 55 10 1.0 1.0 0.00 0.00 0.00 78 1063.2
20260503100150 52 14 1.0 2.0 0.00 0.00 0.00 87 1062.6
20260503090109 53 15 0.0 1.0 0.00 0.00 0.00 84 1062.8
20260503081539 56 16 0.0 1.0 0.00 0.00 0.00 77 1062.6
20260503081036 55 20 1.0 2.0 0.00 0.00 0.00 77 1062.8
20260503080532 55 21 1.0 2.0 0.00 0.00 0.00 78 1062.8
20260503072506 55 25 1.0 1.0 0.00 0.00 0.00 80 1063.1
20260503072003 53 25 1.0 2.0 0.00 0.00 0.00 83 1063.1
20260503071500 53 25 1.0 2.0 0.00 0.00 0.00 86 1063.2
20260503070956 53 26 2.0 3.0 0.00 0.00 0.00 86 1063.1
20260503070453 53 28 2.0 2.0 0.00 0.00 0.00 84 1063.1
20260503054912 53 34 2.0 2.0 0.00 0.00 0.00 86 1063.4
20260503054408 53 88 0.0 2.0 0.00 0.00 0.00 86 1063.4
20260503053906 54 88 1.0 2.0 0.00 0.00 0.00 85 1063.5
20260503053404 54 89 0.0 2.0 0.00 0.00 0.00 84 1063.4
20260503052859 54 90 2.0 2.0 0.00 0.00 0.00 84 1063.6
20260503052357 55 91 1.0 2.0 0.00 0.00 0.00 84 1063.6
20260503051853 55 92 2.0 2.0 0.00 0.00 0.00 81 1063.6
20260503051349 55 93 1.0 2.0 0.00 0.00 0.00 82 1063.4
20260503050846 55 93 2.0 2.0 0.00 0.00 0.00 83 1063.5
20260503050343 55 93 2.0 2.0 0.00 0.00 0.00 82 1063.5
20260503045840 55 94 1.0 2.0 0.00 0.00 0.00 81 1063.5
20260503045338 56 94 1.0 2.0 0.00 0.00 0.00 81 1063.6
20260503044834 56 94 2.0 2.0 0.00 0.00 0.00 80 1063.4
20260503044331 55 94 1.0 2.0 0.00 0.00 0.00 82 1063.2
20260503043828 54 94 0.0 2.0 0.00 0.00 0.00 85 1063.5
20260503043325 54 94 2.0 2.0 0.00 0.00 0.00 86 1063.6
20260503042821 54 94 0.0 2.0 0.00 0.00 0.00 86 1063.5
20260503042318 55 94 1.0 1.0 0.00 0.00 0.00 85 1063.6
20260503041814 55 94 1.0 1.0 0.00 0.00 0.00 83 1063.5
20260503041312 56 94 0.0 1.0 0.00 0.00 0.00 82 1063.4
20260503040809 55 94 1.0 1.0 0.00 0.00 0.00 81 1063.2
20260503040307 56 94 1.0 1.0 0.00 0.00 0.00 82 1062.9
20260503035803 55 94 0.0 0.0 0.00 0.00 0.00 81 1063.1
20260503035301 56 94 0.0 0.0 0.00 0.00 0.00 82 1063.2
20260503034758 57 94 0.0 0.0 0.00 0.00 0.00 78 1063.1
20260503034255 57 94 0.0 0.0 0.00 0.00 0.00 77 1063.2
20260503033752 57 94 0.0 0.0 0.00 0.00 0.00 79 1063.4
20260503033249 57 94 0.0 0.0 0.00 0.00 0.00 78 1062.9
20260503032747 56 94 0.0 0.0 0.00 0.00 0.00 80 1063.0
20260503032246 57 94 0.0 0.0 0.00 0.00 0.00 79 1062.9
20260503031743 58 94 0.0 0.0 0.00 0.00 0.00 77 1062.7
20260503031241 58 94 0.0 0.0 0.00 0.00 0.00 76 1062.7
20260503030737 57 94 0.0 0.0 0.00 0.00 0.00 77 1062.8
20260503030233 57 94 0.0 0.0 0.00 0.00 0.00 80 1062.7
20260503025730 58 94 0.0 0.0 0.00 0.00 0.00 76 1062.6
20260503025228 59 94 0.0 0.0 0.00 0.00 0.00 75 1062.6
20260503024724 58 94 0.0 0.0 0.00 0.00 0.00 75 1062.5
20260503024222 58 94 0.0 0.0 0.00 0.00 0.00 78 1062.5
20260503023718 58 94 0.0 0.0 0.00 0.00 0.00 78 1062.6
20260503023215 58 94 0.0 0.0 0.00 0.00 0.00 75 1062.5
20260503022711 58 94 0.0 0.0 0.00 0.00 0.00 76 1062.3
20260503022211 58 94 0.0 0.0 0.00 0.00 0.00 75 1062.0
20260503021708 58 94 0.0 0.0 0.00 0.00 0.00 77 1062.0
20260503021204 59 94 0.0 0.0 0.00 0.00 0.00 75 1061.9
20260503020702 59 94 0.0 0.0 0.00 0.00 0.00 76 1061.9
20260503020159 59 94 0.0 0.0 0.00 0.00 0.00 74 1062.0
20260503015656 60 94 0.0 0.0 0.00 0.00 0.00 74 1061.6
20260503015153 61 94 0.0 0.0 0.00 0.00 0.00 68 1061.9
20260503014648 61 94 0.0 0.0 0.00 0.00 0.00 68 1061.8
20260503014147 61 94 0.0 0.0 0.00 0.00 0.00 68 1061.8
20260503013643 62 94 0.0 0.0 0.00 0.00 0.00 67 1061.8
20260503013141 63 94 0.0 0.0 0.00 0.00 0.00 65 1061.7
20260503012638 64 94 0.0 0.0 0.00 0.00 0.00 61 1061.8
20260503012135 65 94 0.0 0.0 0.00 0.00 0.00 58 1061.8
20260503011632 65 94 0.0 0.0 0.00 0.00 0.00 57 1061.6
20260503011129 66 94 0.0 0.0 0.00 0.00 0.00 55 1061.6
20260503010625 67 94 0.0 0.0 0.00 0.00 0.00 53 1061.6
20260503010123 67 94 1.0 1.0 0.00 0.00 0.00 52 1061.3
20260503005619 68 94 0.0 1.0 0.00 0.00 0.00 49 1061.5
20260503005117 68 93 1.0 1.0 0.00 0.00 0.00 48 1061.6
20260503004612 69 94 1.0 2.0 0.00 0.00 0.00 48 1061.5
20260503004112 69 94 0.0 1.0 0.00 0.00 0.00 46 1061.5
20260503003608 70 94 1.0 2.0 0.00 0.00 0.00 44 1061.3
20260503003105 70 75 0.0 2.0 0.00 0.00 0.00 45 1061.4
20260503002602 71 62 2.0 4.0 0.00 0.00 0.00 43 1061.4
20260503002058 71 37 0.0 1.0 0.00 0.00 0.00 43 1061.5
20260503001549 71 8 1.0 2.0 0.00 0.00 0.00 41 1061.3
20260503001047 71 17 0.0 3.0 0.00 0.00 0.00 42 1061.4
20260503000544 72 31 3.0 3.0 0.00 0.00 0.00 41 1061.3
20260503000041 72 57 1.0 2.0 0.00 0.00 0.00 42 1061.2
20260502235537 72 33 1.0 2.0 0.00 0.00 0.00 40 1061.3
20260502235036 73 31 1.0 2.0 0.00 0.00 0.00 39 1061.3
20260502234531 72 30 2.0 4.0 0.00 0.00 0.00 40 1061.1
20260502234029 72 19 2.0 7.0 0.00 0.00 0.00 41 1061.3
20260502233529 72 15 2.0 2.0 0.00 0.00 0.00 40 1061.2
20260502233027 72 57 1.0 3.0 0.00 0.00 0.00 42 1061.3
20260502232523 72 21 2.0 3.0 0.00 0.00 0.00 40 1061.3
20260502232020 72 27 2.0 3.0 0.00 0.00 0.00 38 1061.2
20260502231517 72 25 2.0 4.0 0.00 0.00 0.00 42 1061.3
20260502231015 72 115 2.0 3.0 0.00 0.00 0.00 39 1061.2
20260502230513 72 26 1.0 2.0 0.00 0.00 0.00 38 1061.2
20260502230011 71 47 1.0 7.0 0.00 0.00 0.00 38 1061.1
20260502225511 72 78 4.0 10.0 0.00 0.00 0.00 39 1061.1
20260502225009 72 64 6.0 9.0 0.00 0.00 0.00 39 1061.2
20260502224505 73 50 1.0 4.0 0.00 0.00 0.00 38 1061.0
20260502224002 73 26 3.0 3.0 0.00 0.00 0.00 36 1061.2
20260502223500 73 14 0.0 1.0 0.00 0.00 0.00 38 1061.2
20260502222958 72 38 1.0 4.0 0.00 0.00 0.00 38 1061.1
20260502222455 72 37 2.0 10.0 0.00 0.00 0.00 38 1061.2
20260502221950 73 51 3.0 7.0 0.00 0.00 0.00 38 1061.3
20260502221447 73 41 0.0 2.0 0.00 0.00 0.00 38 1061.4
20260502220944 73 57 2.0 9.0 0.00 0.00 0.00 39 1061.4
20260502220440 73 15 2.0 6.0 0.00 0.00 0.00 38 1061.4
20260502215937 72 46 1.0 2.0 0.00 0.00 0.00 39 1061.3
20260502215434 73 75 5.0 7.0 0.00 0.00 0.00 37 1061.3
20260502214931 73 20 2.0 4.0 0.00 0.00 0.00 38 1061.4
20260502214427 73 26 3.0 4.0 0.00 0.00 0.00 39 1061.1
20260502213925 73 6 3.0 4.0 0.00 0.00 0.00 36 1061.5
20260502213421 73 356 3.0 6.0 0.00 0.00 0.00 38 1061.5
20260502212920 73 110 4.0 8.0 0.00 0.00 0.00 36 1061.5
20260502212419 74 0 2.0 4.0 0.00 0.00 0.00 38 1061.6
20260502211916 72 16 1.0 4.0 0.00 0.00 0.00 41 1061.7
20260502211411 73 26 2.0 6.0 0.00 0.00 0.00 42 1061.8
20260502210909 72 72 2.0 7.0 0.00 0.00 0.00 41 1061.7
20260502210405 73 43 3.0 11.0 0.00 0.00 0.00 42 1061.8
20260502205903 72 13 2.0 6.0 0.00 0.00 0.00 40 1061.9
20260502205358 72 22 2.0 8.0 0.00 0.00 0.00 42 1061.9
20260502204856 72 32 4.0 9.0 0.00 0.00 0.00 41 1062.0
20260502204353 73 19 2.0 7.0 0.00 0.00 0.00 44 1062.1
20260502203850 73 35 0.0 4.0 0.00 0.00 0.00 43 1062.2